Location: Unspecified
(0.0000°N, 0.0000°E)
Time: 13:07:07
(UTC+02:00)

Daily predictions for brighter satellites

Satellite Brightness Start Highest point End
(mag) Time Altitude Azimuth Time Altitude Azimuth Time Altitude Azimuth
CSL-04 Rocket 4.3 19:58:09 10° S 20:03:34 64° WSW 20:08:54 10° NNW
Iridium 4 Rocket 4.3 19:59:46 10° SSE 20:03:57 29° E 20:08:27 10° NNE
YAOGAN 1 2.8 20:00:14 10° SSE 20:04:24 46° ENE 20:08:32 10° N
CZ-4C R/B 3.0 20:00:30 10° SW 20:05:11 46° WNW 20:09:56 10° N
GPS 2-15 Rocket1 4.2 20:03:05 10° W 20:07:27 37° NNW 20:11:46 10° NE
Cosmos 1408 Rocket 3.7 20:03:25 10° N 20:07:52 85° W 20:12:21 10° S
Cosmos 1048 Rocket 4.1 20:04:22 10° SSW 20:09:37 82° WNW 20:14:45 10° N
GPS 2-17 Rocket1 3.4 20:06:12 10° WSW 20:10:54 61° NNW 20:15:26 10° ENE
Cosmos 2297 Rocket 3.5 20:08:58 10° SSE 20:12:57 20° ESE 20:16:54 10° ENE
Cosmos 1980 Rocket 3.4 20:09:38 10° NNW 20:15:06 49° WSW 20:20:34 10° S
Cosmos 1300 3.9 20:14:40 10° SE 20:17:37 21° E 20:20:33 10° NE
CORIOLIS 4.4 20:13:22 10° S 20:18:42 75° WSW 20:24:02 10° NNW
Cosmos 2322 Rocket 2.5 20:15:46 10° N 20:21:03 43° ENE 20:26:22 10° SE
Hubble Space Telescope 3.6 20:21:18 10° NNW 20:21:40 10° NNW 20:22:03 10° NNW
Centaur D-1AR AC-39 4.4 20:17:33 10° W 20:23:44 60° NNW 21:04:03 14° ENE
deb Centaur AC-2 4.2 20:23:37 10° SW 20:28:06 82° SSE 20:32:32 14° ENE
Cosmos 1624 Rocket 4.0 20:23:51 10° N 20:29:00 59° ENE 20:34:12 10° SSE
Delta 202 4.1 20:26:09 10° WNW 20:31:42 64° NNE 20:38:07 14° E
Cosmos 1371 Rocket 4.0 20:26:36 10° N 20:31:55 84° ENE 20:37:13 10° SSE
Cosmos 1626 2.0 20:28:37 10° N 20:32:20 83° E 20:36:04 10° S
Thor Agena Rocket 4.1 20:33:17 10° N 20:38:15 61° WNW 20:43:13 10° SSW
ARIANE 3 DEB 1.3 20:37:31 10° W 20:39:42 82° S 20:40:30 34° ESE
Meteor 1-11 4.5 20:34:35 10° N 20:40:15 73° W 20:45:52 10° S
ALOS 2.5 20:36:04 10° SSE 20:40:32 45° ENE 20:44:58 10° N
Cosmos 2151 2.9 20:39:56 10° N 20:44:09 86° E 20:48:22 10° S
Cosmos 1535 Rocket 4.4 20:38:18 10° S 20:44:34 83° E 20:50:42 10° N
Cosmos 2221 4.1 20:40:52 10° SSW 20:44:49 37° W 20:48:47 10° NNW
ARIANE 5 DEB (SYLDA) 1.4 20:42:18 10° W 20:45:32 69° S 20:45:52 52° SE
Cosmos 1315 Rocket 3.3 20:41:48 10° NNE 20:45:39 39° E 20:49:32 10° SSE
GPS 2-14 Rocket1 4.4 20:44:58 10° NNW 20:47:33 17° NNE 20:47:59 17° NNE
SPOT 3 Rocket 3.5 20:46:15 10° SSE 20:51:26 87° WSW 20:56:36 10° NNW
Palapa B4 Rocket 4.1 20:49:03 10° W 20:53:57 61° NNW 20:58:29 23° NE
Meteor 2-10 3.9 20:53:06 10° S 20:58:13 86° W 21:03:14 10° N
NOSS 3-4 (A) 4.5 20:56:45 10° NNW 21:04:17 63° WSW 21:12:04 10° SSE
NOSS 3-4 (C) 4.5 20:56:51 10° NNW 21:04:24 64° WSW 21:12:11 10° SSE
ARIANE 5 DEB (SYLDA) 4.1 21:03:42 10° WNW 21:04:13 15° WNW 21:04:13 15° WNW
SL-23 DEB 3.6 21:04:30 10° SSW 21:07:12 54° SSE 21:07:12 54° SSE
Cosmos 2058 4.3 21:04:55 10° NNW 21:08:45 38° W 21:12:36 10° SSW
ARIANE 5 R/B 4.3 12:32:06 10° W 21:09:33 71° S 21:12:35 32° ESE
OAO 3 Rocket 4.3 21:08:49 10° WNW 21:13:30 42° SW 21:16:44 18° SSE
GPS 2-12 Rocket1 3.4 21:11:08 10° W 21:15:28 55° SSW 21:16:29 44° SSE
SL-16 R/B 3.3 21:10:31 10° NW 21:15:51 44° WSW 21:21:13 10° S
Cosmos 2228 Rocket 3.2 21:11:57 10° S 21:15:45 54° SE 21:15:45 54° SE
Meteor 2-2 Rocket 4.3 21:11:59 10° S 21:17:52 79° W 21:23:36 10° N
Milstar 3 Cent rocket 3.6 21:12:53 10° NNW 21:18:09 23° NNE 21:18:09 23° NNE
Cosmos 2227 Rocket 2.7 21:13:11 10° SSW 21:18:42 59° WNW 21:24:14 10° N
Cosmos 1452 Rocket 3.4 21:29:19 10° NNW 21:34:33 84° W 21:39:50 10° S
ARIANE 5 R/B 4.4 15:38:45 10° W 21:55:33 73° S 22:00:32 47° ESE
Cosmos 2297 Rocket 3.9 21:51:55 10° SW 21:56:42 28° WNW 22:00:01 17° NNW
Cosmos 2360 Rocket 2.8 21:52:08 10° NNW 21:57:37 52° WSW 21:58:54 43° SSW
Ariane H10+ 3.3 12:44:43 10° W 21:58:55 71° NNW 21:59:53 66° NNE
ATLAS 3B CENTAUR R/B 4.0 21:56:08 10° NW 22:04:21 70° NE 22:07:24 59° E
Ariane H10 4.4 22:00:20 10° W 22:40:54 76° SW 22:40:54 76° SW
